Flag for U.S.A. Weather past 2 weeks in Baltimore, Maryland, U.S.A.

Now
74 °F

Scattered clouds.


Feels Like: 77 °F
Forecast: 49 / 76 °F
Wind: 17 mph from West

Location: Baltimore-Washington International Airport

Current Time: May 22, 2015 at 5:36:49 PM

Latest Report: May 22, 2015 at 4:54 PM


Visibility: 10 mi

Pressure: 30.05 "Hg

Humidity: 31%

Dew point: 41 °F

Location of BaltimoreLocation

Historic Weather in Baltimore — Graph

°F

Baltimore temperature yesterday

Maximum temperature yesterday: 58 °F (at 12:54 AM)
Minimum temperature yesterday: 49 °F (at 2:54 PM)
Average temperature yesterday: 53 °F

Past Weeks' High & Low Weather Summary

 TemperatureHumidityPressure
High88 °F (May 12, 2:54 PM)97% (May 10, 2:54 AM)30.45 "Hg (May 10, 2:54 AM)
Low48 °F (May 22, 4:54 AM)27% (May 14, 2:54 PM)29.81 "Hg (May 19, 6:54 PM)
Average68 °F66%30.10 "Hg
* Reported May 7 3:54 PM — May 22 3:54 PM, Baltimore, Weather by CustomWeather, © 2015

Note: Actual official high and low records may vary slightly from our data, if they occured in-between our weather recording intervals... More about our weather records

Advertising

Baltimore weather history for previous 24 hours

 ConditionsComfort  
Time TempWeatherWind HumidityBarometerVisibility
3:54 PM
Fri, May 22
74 °FPassing clouds.14 mph32%30.05 "Hg10 mi
2:54 PM73 °FPassing clouds.13 mph36%30.06 "Hg10 mi
1:54 PM72 °FScattered clouds.17 mph35%30.06 "Hg10 mi
12:54 PM70 °FScattered clouds.14 mph38%30.07 "Hg10 mi
11:54 AM69 °FPassing clouds.16 mph38%30.08 "Hg10 mi
10:54 AM67 °FSunny.16 mph44%30.06 "Hg10 mi
9:54 AM64 °FSunny.12 mph49%30.06 "Hg10 mi
8:54 AM59 °FSunny.9 mph62%30.05 "Hg10 mi
7:54 AM54 °FSunny.9 mph72%30.03 "Hg9 mi
6:54 AM50 °FSunny.6 mph83%30.02 "Hg10 mi
5:54 AM49 °FPassing clouds.5 mph84%30.01 "Hg10 mi
4:54 AM48 °FClear.No wind89%29.98 "Hg10 mi
3:54 AM49 °FPassing clouds.6 mph90%29.96 "Hg10 mi
2:54 AM50 °FPassing clouds.5 mph89%29.95 "Hg10 mi
1:54 AM51 °FPassing clouds.6 mph92%29.95 "Hg9 mi
12:54 AM50 °FPassing clouds.No wind89%29.95 "Hg10 mi
11:54 PM
Thu, May 21
49 °FPassing clouds.7 mph93%29.94 "Hg10 mi
10:54 PM50 °FPassing clouds.7 mph93%29.94 "Hg10 mi
9:54 PM51 °FPassing clouds.5 mph92%29.93 "Hg10 mi
8:54 PM52 °FCloudy.5 mph86%29.93 "Hg10 mi
7:54 PM52 °FMostly cloudy.3 mph86%29.94 "Hg10 mi
6:54 PM52 °FMostly cloudy.No wind83%29.93 "Hg10 mi
5:54 PM52 °FOvercast.6 mph86%29.92 "Hg10 mi
5:01 PM52 °FMostly cloudy.7 mph88%29.93 "Hg10 mi
Weather by CustomWeather, © 2015

See weather overviewHow to use our weather pages